Location: G�nzburg
(48.4565°N, 10.3217°E)
Time: 22:03:26
(UTC+01:00)

ISS - Pass Details

Date: 11 January 2018
Orbit: 401 x 407 km, 51.6° (Epoch: 17 January)

Event Time Altitude Azimuth Distance (km) Brightness Sun altitude
Exits shadow 05:42:11 42° 82° (E) 592 -2.6 -23.4°
Drops below altitude 10° 05:44:33 10° 100° (E) 1,464 0.1 -23.0°
Sets 05:46:38 0° 103° (ESE) 2,324 1.5 -22.6°
